LiveATC.Net - Listen to live air traffic control over the Internet!


ICAO: FMEE  IATA: RUN   Airport: Roland Garros Airport
City: Sainte-Marie
Country: Reunion   Continent: Africa
FMEE METAR Weather: FMEE 220900Z AUTO 07012KT 9999 ///CB 29/25 Q1003 TEMPO 4000 SHRA
FMEE Flight Activity (FlightAware)

FMEE Tower
Feed Status: UP   Listeners: 2
Listen in your browser - HTML5 player (in browser, HTML5)
Click here to listen with your own player (launches your MP3 player)
Archive Access: FMEE Tower
FacilityFrequency
Gillot Tower118.400

NOTICE

Unauthorized use prohibited. See LiveATC.net Terms of Service


Airport/ARTCC Code
Frequency Search
(e.g., 124.400, 128.75)
Site-wide search
 


Browse Feeds
Top 50 Feeds
Coverage Map
Bad Weather Areas

LiveATC FAQ
Offer LiveATC feed
Contact LiveATC.net
Press Inquiries

LiveATC on iPhone
LiveATC on Android

Windows Phone
Windows 8/10

LiveATC Mobile
(Mobile browser)

ATC Audio Archives
Interesting Recordings

LiveATC Forums


Home Page
About LiveATC.net
Make a Donation
Terms of Use
Privacy Policy

Canadian Air Freqs

AIRMETs/SIGMETs

FAA Airport Status
Nat'l Airspace Status
Arrival Demand Charts


Server Software By:
Icecast.org
Liquidsoap